HISTORICAL SENSOR DATA

Sensor Data Report

DB LIVE
CURRENT TIME--:--:--
DEVICE NETWORK Gateway Status
13 ESP · realtime ~1s · history 60s
Weather WS-MOD-01
ONLINE
Actuator ACT-MOD-01
OFFLINE
Mainboard L3 MB-L3-01
ONLINE
Mainboard L5 MB-L5-01
ONLINE
Remote AC AC-REMOTE-01
ONLINE
PZEM L3-01 PWR-L3-01
OFFLINE
PZEM L3-02 PWR-L3-02
OFFLINE
PZEM L3-03 PWR-L3-03
OFFLINE
PZEM L3-04 PWR-L3-04
OFFLINE
PZEM L5-01 PWR-L5-01
ONLINE
PZEM L5-02 PWR-L5-02
ONLINE
PZEM L5-03 PWR-L5-03
OFFLINE
PZEM L5-04 PWR-L5-04
OFFLINE
REPORT FILTER

Periode & Sensor

DATABASE HISTORY
RESET
QUICK RANGE Hari ini 7 hari 30 hari
PERIODE07 Sep 2026sampai 07 Sep 2026
TOTAL DATA25,090sensor readings
MINIMUM0.00sesuai filter
AVERAGE35.87sesuai filter
MAXIMUM912.00sesuai filter
REPORT RESULT

Data Sensor

07/09/2026 — 07/09/2026 EXPORT CSV
NOTANGGALWAKTUDEVICECHANNELSENSORVALUEUNIT
201 07/09/2026 06:09:00 MB-L3-01Mainboard Lantai 3 L3-LUX-01 Illuminance / LUX 1 76.20 lux
202 07/09/2026 06:08:00 MB-L5-01Mainboard Lantai 5 L5-RAD-01 Radiation 1 1.00 W/m²
203 07/09/2026 06:08:00 PWR-L5-01Power Meter L5 PZEM 01 PZEM-L5-01-FREQ PZEM L5-01 Frequency 50.00 Hz
204 07/09/2026 06:08:00 MB-L5-01Mainboard Lantai 5 L5-AI-05 Analog Input 5 3.05 V
205 07/09/2026 06:08:00 MB-L5-01Mainboard Lantai 5 L5-BGT-03 Black Globe Temperature 3 25.80 °C
206 07/09/2026 06:08:00 AC-REMOTE-01Remote AC AC-POWER AC Power State 1.00 state
207 07/09/2026 06:08:00 MB-L3-01Mainboard Lantai 3 L3-SHT-01-RH SHT20 1 Humidity 47.40 %RH
208 07/09/2026 06:08:00 WS-MOD-01Weather Station Module WS-DIR Arah Angin 76.70 °
209 07/09/2026 06:08:00 MB-L3-01Mainboard Lantai 3 L3-LUX-02 Illuminance / LUX 2 116.90 lux
210 07/09/2026 06:08:00 MB-L3-01Mainboard Lantai 3 L3-LUX-06 Illuminance / LUX 6 234.10 lux
211 07/09/2026 06:08:00 MB-L5-01Mainboard Lantai 5 L5-ST-02 Surface Temperature 2 21.90 °C
212 07/09/2026 06:08:00 PWR-L5-02Power Meter L5 PZEM 02 PZEM-L5-02-CURR PZEM L5-02 Current 0.00 A
213 07/09/2026 06:08:00 MB-L5-01Mainboard Lantai 5 L5-SHT-01-RH SHT20 1 Humidity 47.50 %RH
214 07/09/2026 06:08:00 MB-L5-01Mainboard Lantai 5 L5-LUX-03 Illuminance / LUX 3 133.80 lux
215 07/09/2026 06:08:00 AC-REMOTE-01Remote AC AC-FAN AC Fan Speed 0.00 code
216 07/09/2026 06:08:00 MB-L3-01Mainboard Lantai 3 L3-SHT-03-T SHT20 3 Temperature 28.20 °C
217 07/09/2026 06:08:00 MB-L3-01Mainboard Lantai 3 L3-AI-03 Analog Input 3 3.12 V
218 07/09/2026 06:08:00 MB-L5-01Mainboard Lantai 5 L5-AI-03 Analog Input 3 3.05 V
219 07/09/2026 06:08:00 MB-L5-01Mainboard Lantai 5 L5-BGT-01 Black Globe Temperature 1 25.80 °C
220 07/09/2026 06:08:00 PWR-L5-02Power Meter L5 PZEM 02 PZEM-L5-02-FREQ PZEM L5-02 Frequency 50.00 Hz
221 07/09/2026 06:08:00 MB-L5-01Mainboard Lantai 5 L5-SHT-03-T SHT20 3 Temperature 27.90 °C
222 07/09/2026 06:08:00 PWR-L5-01Power Meter L5 PZEM 01 PZEM-L5-01-POWER PZEM L5-01 Active Power 10.60 W
223 07/09/2026 06:08:00 WS-MOD-01Weather Station Module WS-RH Kelembapan Udara 80.30 %RH
224 07/09/2026 06:08:00 MB-L3-01Mainboard Lantai 3 L3-RAD-02 Radiation 2 1.00 W/m²
225 07/09/2026 06:08:00 MB-L3-01Mainboard Lantai 3 L3-AI-06 Analog Input 6 3.12 V
226 07/09/2026 06:08:00 MB-L5-01Mainboard Lantai 5 L5-AI-06 Analog Input 6 3.05 V
227 07/09/2026 06:08:00 MB-L5-01Mainboard Lantai 5 L5-LUX-01 Illuminance / LUX 1 86.50 lux
228 07/09/2026 06:08:00 AC-REMOTE-01Remote AC AC-SETPOINT AC Set Temperature 23.00 °C
229 07/09/2026 06:08:00 MB-L5-01Mainboard Lantai 5 L5-RAD-02 Radiation 2 1.00 W/m²
230 07/09/2026 06:08:00 PWR-L5-01Power Meter L5 PZEM 01 PZEM-L5-01-PF PZEM L5-01 Power Factor 0.39
231 07/09/2026 06:08:00 MB-L3-01Mainboard Lantai 3 L3-AI-01 Analog Input 1 3.12 V
232 07/09/2026 06:08:00 MB-L3-01Mainboard Lantai 3 L3-LUX-03 Illuminance / LUX 3 127.90 lux
233 07/09/2026 06:08:00 MB-L3-01Mainboard Lantai 3 L3-SHT-02-T SHT20 2 Temperature 28.00 °C
234 07/09/2026 06:08:00 MB-L5-01Mainboard Lantai 5 L5-SHT-02-T SHT20 2 Temperature 28.20 °C
235 07/09/2026 06:08:00 MB-L5-01Mainboard Lantai 5 L5-LUX-04 Illuminance / LUX 4 77.50 lux
236 07/09/2026 06:08:00 PWR-L5-01Power Meter L5 PZEM 01 PZEM-L5-01-VOLT PZEM L5-01 Voltage 224.10 V
237 07/09/2026 06:08:00 MB-L5-01Mainboard Lantai 5 L5-AI-01 Analog Input 1 3.05 V
238 07/09/2026 06:08:00 MB-L5-01Mainboard Lantai 5 L5-HFT-01 Heat Flow Temperature 1 22.40 °C
239 07/09/2026 06:08:00 PWR-L5-02Power Meter L5 PZEM 02 PZEM-L5-02-POWER PZEM L5-02 Active Power 0.00 W
240 07/09/2026 06:08:00 MB-L3-01Mainboard Lantai 3 L3-AI-04 Analog Input 4 3.12 V
241 07/09/2026 06:08:00 WS-MOD-01Weather Station Module WS-WIND Kecepatan Angin 7.82 m/s
242 07/09/2026 06:08:00 MB-L3-01Mainboard Lantai 3 L3-SHT-03-RH SHT20 3 Humidity 46.50 %RH
243 07/09/2026 06:08:00 MB-L5-01Mainboard Lantai 5 L5-SHT-03-RH SHT20 3 Humidity 47.10 %RH
244 07/09/2026 06:08:00 PWR-L5-01Power Meter L5 PZEM 01 PZEM-L5-01-ENERGY PZEM L5-01 Energy 0.13 kWh
245 07/09/2026 06:08:00 MB-L5-01Mainboard Lantai 5 L5-AI-04 Analog Input 4 3.05 V
246 07/09/2026 06:08:00 MB-L5-01Mainboard Lantai 5 L5-BGT-02 Black Globe Temperature 2 25.80 °C
247 07/09/2026 06:08:00 MB-L5-01Mainboard Lantai 5 L5-LUX-06 Illuminance / LUX 6 138.20 lux
248 07/09/2026 06:08:00 PWR-L5-02Power Meter L5 PZEM 02 PZEM-L5-02-PF PZEM L5-02 Power Factor 0.00
249 07/09/2026 06:08:00 MB-L3-01Mainboard Lantai 3 L3-SHT-01-T SHT20 1 Temperature 27.60 °C
250 07/09/2026 06:08:00 WS-MOD-01Weather Station Module WS-PRES Tekanan Udara 911.00 hPa
251 07/09/2026 06:08:00 MB-L3-01Mainboard Lantai 3 L3-LUX-01 Illuminance / LUX 1 71.90 lux
252 07/09/2026 06:08:00 PWR-L5-02Power Meter L5 PZEM 02 PZEM-L5-02-VOLT PZEM L5-02 Voltage 224.00 V
253 07/09/2026 06:08:00 MB-L5-01Mainboard Lantai 5 L5-SHT-01-T SHT20 1 Temperature 27.70 °C
254 07/09/2026 06:08:00 MB-L5-01Mainboard Lantai 5 L5-LUX-02 Illuminance / LUX 2 401.30 lux
255 07/09/2026 06:08:00 AC-REMOTE-01Remote AC AC-MODE AC Operating Mode 1.00 code
256 07/09/2026 06:08:00 MB-L3-01Mainboard Lantai 3 L3-LUX-05 Illuminance / LUX 5 386.60 lux
257 07/09/2026 06:08:00 MB-L5-01Mainboard Lantai 5 L5-ST-01 Surface Temperature 1 22.50 °C
258 07/09/2026 06:08:00 MB-L3-01Mainboard Lantai 3 L3-SHT-02-RH SHT20 2 Humidity 46.50 %RH
259 07/09/2026 06:08:00 MB-L3-01Mainboard Lantai 3 L3-AI-02 Analog Input 2 3.12 V
260 07/09/2026 06:08:00 MB-L3-01Mainboard Lantai 3 L3-LUX-04 Illuminance / LUX 4 69.00 lux
261 07/09/2026 06:08:00 PWR-L5-02Power Meter L5 PZEM 02 PZEM-L5-02-ENERGY PZEM L5-02 Energy 0.04 kWh
262 07/09/2026 06:08:00 MB-L5-01Mainboard Lantai 5 L5-SHT-02-RH SHT20 2 Humidity 46.80 %RH
263 07/09/2026 06:08:00 PWR-L5-01Power Meter L5 PZEM 01 PZEM-L5-01-CURR PZEM L5-01 Current 0.12 A
264 07/09/2026 06:08:00 MB-L5-01Mainboard Lantai 5 L5-AI-02 Analog Input 2 3.05 V
265 07/09/2026 06:08:00 MB-L5-01Mainboard Lantai 5 L5-HFT-02 Heat Flow Temperature 2 21.70 °C
266 07/09/2026 06:08:00 MB-L3-01Mainboard Lantai 3 L3-AI-05 Analog Input 5 3.12 V
267 07/09/2026 06:08:00 WS-MOD-01Weather Station Module WS-TEMP Suhu Udara 18.40 °C
268 07/09/2026 06:08:00 MB-L3-01Mainboard Lantai 3 L3-RAD-01 Radiation 1 1.00 W/m²
269 07/09/2026 06:07:00 MB-L3-01Mainboard Lantai 3 L3-SHT-03-T SHT20 3 Temperature 28.20 °C
270 07/09/2026 06:07:00 MB-L3-01Mainboard Lantai 3 L3-AI-03 Analog Input 3 3.12 V
271 07/09/2026 06:07:00 MB-L5-01Mainboard Lantai 5 L5-AI-03 Analog Input 3 3.05 V
272 07/09/2026 06:07:00 MB-L5-01Mainboard Lantai 5 L5-BGT-01 Black Globe Temperature 1 25.90 °C
273 07/09/2026 06:07:00 PWR-L5-02Power Meter L5 PZEM 02 PZEM-L5-02-FREQ PZEM L5-02 Frequency 50.00 Hz
274 07/09/2026 06:07:00 MB-L5-01Mainboard Lantai 5 L5-SHT-03-T SHT20 3 Temperature 28.00 °C
275 07/09/2026 06:07:00 PWR-L5-01Power Meter L5 PZEM 01 PZEM-L5-01-POWER PZEM L5-01 Active Power 10.20 W
276 07/09/2026 06:07:00 WS-MOD-01Weather Station Module WS-RH Kelembapan Udara 80.80 %RH
277 07/09/2026 06:07:00 MB-L3-01Mainboard Lantai 3 L3-RAD-02 Radiation 2 1.00 W/m²
278 07/09/2026 06:07:00 MB-L3-01Mainboard Lantai 3 L3-AI-06 Analog Input 6 3.12 V
279 07/09/2026 06:07:00 MB-L5-01Mainboard Lantai 5 L5-AI-06 Analog Input 6 3.05 V
280 07/09/2026 06:07:00 MB-L5-01Mainboard Lantai 5 L5-LUX-01 Illuminance / LUX 1 81.60 lux
281 07/09/2026 06:07:00 AC-REMOTE-01Remote AC AC-SETPOINT AC Set Temperature 23.00 °C
282 07/09/2026 06:07:00 MB-L5-01Mainboard Lantai 5 L5-RAD-02 Radiation 2 1.00 W/m²
283 07/09/2026 06:07:00 PWR-L5-01Power Meter L5 PZEM 01 PZEM-L5-01-PF PZEM L5-01 Power Factor 0.38
284 07/09/2026 06:07:00 MB-L3-01Mainboard Lantai 3 L3-AI-01 Analog Input 1 3.12 V
285 07/09/2026 06:07:00 MB-L3-01Mainboard Lantai 3 L3-LUX-03 Illuminance / LUX 3 119.80 lux
286 07/09/2026 06:07:00 MB-L3-01Mainboard Lantai 3 L3-SHT-02-T SHT20 2 Temperature 28.00 °C
287 07/09/2026 06:07:00 MB-L5-01Mainboard Lantai 5 L5-SHT-02-T SHT20 2 Temperature 28.00 °C
288 07/09/2026 06:07:00 MB-L5-01Mainboard Lantai 5 L5-LUX-04 Illuminance / LUX 4 72.60 lux
289 07/09/2026 06:07:00 PWR-L5-01Power Meter L5 PZEM 01 PZEM-L5-01-VOLT PZEM L5-01 Voltage 224.10 V
290 07/09/2026 06:07:00 MB-L5-01Mainboard Lantai 5 L5-AI-01 Analog Input 1 3.05 V
291 07/09/2026 06:07:00 MB-L5-01Mainboard Lantai 5 L5-HFT-01 Heat Flow Temperature 1 22.40 °C
292 07/09/2026 06:07:00 PWR-L5-02Power Meter L5 PZEM 02 PZEM-L5-02-POWER PZEM L5-02 Active Power 0.00 W
293 07/09/2026 06:07:00 MB-L3-01Mainboard Lantai 3 L3-AI-04 Analog Input 4 3.12 V
294 07/09/2026 06:07:00 WS-MOD-01Weather Station Module WS-WIND Kecepatan Angin 8.06 m/s
295 07/09/2026 06:07:00 MB-L3-01Mainboard Lantai 3 L3-SHT-03-RH SHT20 3 Humidity 46.50 %RH
296 07/09/2026 06:07:00 MB-L5-01Mainboard Lantai 5 L5-SHT-03-RH SHT20 3 Humidity 47.20 %RH
297 07/09/2026 06:07:00 PWR-L5-01Power Meter L5 PZEM 01 PZEM-L5-01-ENERGY PZEM L5-01 Energy 0.13 kWh
298 07/09/2026 06:07:00 MB-L5-01Mainboard Lantai 5 L5-AI-04 Analog Input 4 3.05 V
299 07/09/2026 06:07:00 MB-L5-01Mainboard Lantai 5 L5-BGT-02 Black Globe Temperature 2 25.90 °C
300 07/09/2026 06:07:00 MB-L5-01Mainboard Lantai 5 L5-LUX-06 Illuminance / LUX 6 131.00 lux
Menampilkan maksimal 100 data per halaman